Location: Unspecified
(35.7250°N, 0.0000°E)
Time: 20:24:27
(UTC+00:00)

Courier 1B Rocket - Pass Details

Date: 16 August 2020
Orbit: 920 x 1202 km, 28.2° (Epoch: 01 October)

Event Time Altitude Azimuth Distance (km) Brightness Sun altitude
Exits shadow 02:34:19 32° 135° (SE) 1,556 6.0 -29.2°
Drops below altitude 10° 02:38:06 10° 111° (ESE) 2,682 7.5 -28.7°
Sets 02:40:56 0° 105° (ESE) 3,664 8.4 -28.3°
